Погода в Елани

Погода в Елани : погода сейчас, прогноз погоды и архив. Всё, что Вы хотите узнать о погоде в Елани!

Хотите узнать прогноз погоды в Елани? Тогда Вам сюда: Погода в Елани

Поиск расширенной информации на нашем сайте:

Другие новости

Новости СМИ2

Главная страница сайта

Новости сайта

03.07.2017

Напоминаем, что на нашем специализированном сайте Метеоцентр.Азия вы можете получить высокодетализированные автоматические прогнозы погоды по пунктам России, СНГ и мира в авиационном формате (включающие направление и скорость ветра, видимость, явления погоды, количество и форму облачности, нижнюю и верхнюю границу облачности).


Погода в Елани - сегодня

Время (UTC), дата Ветер
(°,м/с) 
Видим.   Явления Облачность Т
(°С)
Тd
(°С)
f(%) Тe
(°С)
Pmin
(гПа)
dP
(гПа)
Po
(мм)
O2
(г/м3)
Тmin Tmax R s Состояние
почвы
09 19.07.17 040 (СВ) 20000 м    3/0 верхняя 
[Ci fib]
+25.1 +10 39 +26  1016.2  -0.7  751  275           
12 19.07.17 030 (СВ) 20000 м    1/0 верхняя 
[Ci fib]
+26.4 +8.2 32 +26  1014.7  -1.4  750  274           
15 19.07.17 040 (СВ) 20000 м    3/0 верхняя 
[Ci fib]
+25.8 +8.8 34 +26  1014.3  -0.5  749  274    +26.6       
18 19.07.17 360 (С) 20000 м    3/0 верхняя 
[Ci fib]
+19.6 +11.8 61 +25  1015.1  0.5  750  280           
21 19.07.17 340 (С) 20000 м    ясно 
+15.2 +11.6 79 +18  1014.7  -0.6  749  284           
00 20.07.17 360 (С) 20000 м    8/0 средняя 
[Ac trans]
+14.9 +11.4 80 +18  1013.8  -0.9  749  284           
03 20.07.17 360 (С) 20000 м    8/0 средняя 
[Ac trans]
+16.4 +12.2 76 +21  1013.7  749  282  +13.7        сухая 
06 20.07.17 020 (С) 20000 м    8/5 600 м кучево-дожд., средняя 
[Cb cap|Ac As]
+22 +12.9 56 +27  1013.2  -0.2  748  277           
09 20.07.17 030 (СВ) 20000 м    8/3 1000 м средняя, верхняя 
[Cu med, cong|Ac As|Ci fib]
+25.5 +11.3 41 +28  1012.6  -0.4  748  274           
12 20.07.17 020 (С) 5{10}  20000 м    3/3 1000 м верхняя 
[Cu hum|Ci fib]
+27.1 +11.9 39 +31  1011.4  -1.1  747  272           
15 20.07.17 020 (С) 20000 м    3/0 верхняя 
[Ci fib]
+26.2 +11.4 40 +29  1011  -0.4  747  273    +27.3       
18 20.07.17 340 (С) 20000 м    6/0 верхняя 
[Ci fib]
+20.9 +11.1 53 +24  1012.4  1.1  748  278           
21 20.07.17 340 (С) 20000 м    3/0 верхняя 
[Ci fib]
+17.1 +12.6 75 +23  1012.2  -0.4  747  281           
00 21.07.17 350 (С) 20000 м    4/0 верхняя 
[Ci fib]
+16 +12.5 80 +21  1011.7  -0.5  747  282           
03 21.07.17 330 (СЗ) 20000 м    6/0 средняя, верхняя 
[Ac As|Ci fib]
+16.4 +12.3 77 +21  1012.9  1.1  748  282  +15.3        сухая 
06 21.07.17 350 (С) 20000 м    3/0 верхняя 
[Ci fib]
+24.3 +13 49 +30  1012.7  0.2  748  274           
09 21.07.17 330 (СЗ) 20000 м    4/0 верхняя 
[Ci fib]
+26.5 +8.2 31 +27  1012.8  0.2  748  273           
12 21.07.17 330 (СЗ) 20000 м    ясно 
+27.4 +7.2 28 +27  1013  0.2  748  273           
15 21.07.17 330 (СЗ) 20000 м    ясно 
+26.2 +9.3 34 +27  1013.2  0.2  749  274    +27.6       
18 21.07.17 340 (С) 20000 м    3/0 верхняя 
[Ci fib]
+20.8 +10.6 52 +23  1014.7  1.2  749  279           
21 21.07.17 280 (З) 20000 м    4/0 верхняя 
[Ci fib]
+14.6 +10.5 76 +18  1015.2  0.1  749  285           
00 22.07.17 280 (З) 20000 м    6/0 верхняя 
[Ci fib]
+13.4 +11.4 88 +18  1015.2  749  286           
03 22.07.17 220 (ЮЗ) 20000 м    3/0 верхняя 
[Ci fib]
+15.4 +11.7 79 +20  1015.7  0.6  750  284  +11        сухая 
06 22.07.17 230 (ЮЗ) 20000 м    3/0 верхняя 
[Ci fib]
+25.3 +10.9 40 +28  1015.6  0.4  750  275           
09 22.07.17 260 (З) 20000 м    8/1 1000 м верхняя 
[Cu hum|Ci]
+28.5 +10.9 33 +31  1014.9  -0.5  750  272           
Время (UTC), дата Ветер
(°,м/с) 
Видим.   Явления Облачность Т
(°С)
Тd
(°С)
f(%) Тe
(°С)
Pmin
(гПа)
dP
(гПа)
Po
(мм)
O2
(г/м3)
Тmin Tmax R s Состояние
почвы

Для получения пояснительной информации подведите курсор к названию столбца.

ПОГОДА в Елани - архив

Всё, что Вы хотите узнать о погоде в Елани - удобно и подробно!

Выберите нужную дату (начиная с 1 января 2015* года) и нажмите кнопку "Найти".
Будут отображены архивные сводки погоды по пункту Елань, начиная с указанной даты.


Отображать данные в формате CSV (для использования в таблицах Excel)


Внимание! Наш архив погоды предназначен исключительно для личного некоммерческого использования в познавательных целях. Если Вам необходимы официальные справки о состоянии погоды (для производственных, юридических, коммерческих и т.п. целей), обращайтесь в органы Росгидромета.

*Примечание: данная дата относится к архиву по метеостанциям СССР (Россия, СНГ, Балтия).
Архив по метеостанциям Зарубежной Европы и Азии (кроме Китая) хранится 10 дней, по другим регионам земного шара (Китай, Африка, Америка, Австралия, Океания) - 1 день.

Елань - район местоположения метеостанции


Название, широта, долгота, высота метеостанции:
Елань 50.9°ш. 43.7°д. 132 м над ур. моря [Российская Федерация]

Дополнительная информация

В oтличие oт бoльшинства пoгoдных сайтoв мы публикуем пoдрoбную метеoинфoрмацию в детальнoм прoфессиoнальнoм фoрмате.

Характеристики температуры и влажнoсти вoздуха измеряются на высoте 2 м в тени вдали oт зданий и деревьев.
Скoрoсть ветра измеряется на высoте 10 м (на урoвне рoста челoвека скoрoсть ветра ниже в 1.5-2 раза). Если метеoстанция нахoдится в гoрoде или в лесу, тo скoрoсть ветра занижена на 2-4 м/с пo сравнению с oткрытым местoм. Скoрoсть ветра над акватoриями крупных рек и oзёр, а также на вершинах хoлмoв на 2-5 м/с выше, чем в oбычных услoвиях.
Атмoсфернoе давление в разных тoчках местнoсти мoжет значительнo oтличаться oт давления на метеoстанции, в зависимoсти oт услoвий рельефа (при пoдъёме на 10 м давление пoнижается примернo на 1 мм рт.ст.).